Beckley, WV

4:14 PM EDT on September 21, 2017 (GMT -0400)
Raleigh County Memorial

Weather History for KBKW - August, 2012

Change the Weather History Date:

Wednesday, August 1, 2012

  Actual Average Record
Temperature  
Mean Temperature 72 °F 70 °F  
Max Temperature 83 °F 80 °F 94 °F (1931)
Min Temperature 60 °F 61 °F 46 °F (1912)
Degree Days  
Heating Degree Days 0 0  
Month to date heating degree days 0 0  
Since 1 June heating degree days 50 47  
Since 1 July heating degree days 0 8  
Cooling Degree Days 7 6  
Month to date cooling degree days 7 6  
Year to date cooling degree days 536 339  
Since 1 June cooling degree days 422 298  
Growing Degree Days 21 (Base 50)    
Moisture  
Dew Point 62 °F    
Average Humidity 74    
Maximum Humidity 93    
Minimum Humidity 55    
Precipitation  
Precipitation 0.01 in 0.14 in 0.95 in (1932)
Month to date precipitation 0.01 0.14  
Year to date precipitation 27.95 26.33  
Snow  
Snow 0.00 in - - ()
Month to date snowfall 0.0  
Since 1 September snowfall 36.0  
Snow Depth 0.00 in    
Sea Level Pressure  
Sea Level Pressure 29.93 in    
Wind  
Wind Speed 3 mph (SW)    
Max Wind Speed 12 mph    
Max Gust Speed 15 mph    
Visibility 8 miles    
Events      
T = Trace of Precipitation, MM = Missing Value Source: NWS Daily Summary

Daily Weather History Graph

Daily Weather History Graph

Search for Another Location

Airport or City:

Trip Planner

Search our weather history database for the weather conditions in past years. The results will help you decide how hot, cold, wet, or windy it might be!

Date:

Astronomy

Aug. 01, 2012 Rise Set
Actual Time 6:28 AM EDT 8:32 PM EDT
Civil Twilight 5:59 AM EDT 9:01 PM EDT
Nautical Twilight 5:23 AM EDT 9:37 PM EDT
Astronomical Twilight 4:45 AM EDT 10:15 PM EDT
Moon 8:03 PM EDT (8/1) 5:55 AM EDT (8/1)
Length of Visible Light 15h 02m
Length of Day
14h 04m
Full, 100% of the Moon is Illuminated
Aug 1
Full
Aug 1
Full
Aug 9
Last Quarter
Aug 17
New
Aug 24
First Quarter

Hourly Weather History & Observations

Time (EDT) Temp. Heat Index Dew Point Humidity Pressure Visibility Wind Dir Wind Speed Gust Speed Precip Events Conditions
12:51 AM 63.0 °F - 61.0 °F 93% 29.94 in 10.0 mi ESE 4.6 mph - N/A   Clear
1:51 AM 63.0 °F - 60.1 °F 90% 29.92 in 9.0 mi Calm Calm - N/A   Clear
2:51 AM 63.0 °F - 60.1 °F 90% 29.91 in 10.0 mi Calm Calm - N/A   Clear
3:51 AM 62.1 °F - 60.1 °F 93% 29.92 in 6.0 mi Calm Calm - N/A   Clear
4:49 AM 60.8 °F - 57.2 °F 88% 30.00 in 4.0 mi Calm Calm - N/A   Partly Cloudy
4:51 AM 60.1 °F - 57.9 °F 93% 29.90 in 4.0 mi Calm Calm - N/A   Partly Cloudy
5:51 AM 62.1 °F - 59.0 °F 90% 29.91 in 10.0 mi Calm Calm - N/A   Clear
6:51 AM 62.1 °F - 60.1 °F 93% 29.92 in 8.0 mi Calm Calm - N/A   Clear
7:10 AM 60.8 °F - 57.2 °F 88% 30.01 in 2.0 mi Calm Calm - N/A   Partly Cloudy
7:13 AM 60.8 °F - 59.0 °F 94% 30.01 in 0.8 mi Calm Calm - N/A   Mist
7:28 AM 60.8 °F - 60.8 °F 100% 30.01 in 1.5 mi Calm Calm - N/A   Scattered Clouds
7:30 AM 62.6 °F - 60.8 °F 94% 30.01 in 4.0 mi Calm Calm - N/A   Scattered Clouds
7:51 AM 66.0 °F - 63.0 °F 90% 29.94 in 10.0 mi Calm Calm - N/A   Clear
8:51 AM 66.9 °F - 63.0 °F 87% 29.95 in 10.0 mi West 3.5 mph - N/A   Clear
9:51 AM 71.1 °F - 64.0 °F 78% 29.94 in 10.0 mi SSW 3.5 mph - N/A   Clear
10:51 AM 75.0 °F - 64.9 °F 71% 29.95 in 10.0 mi Calm Calm - N/A   Clear
11:15 AM 75.2 °F - 66.2 °F 73% 30.03 in 10.0 mi SW 6.9 mph - N/A   Mostly Cloudy
11:51 AM 77.0 °F - 64.9 °F 66% 29.93 in 10.0 mi West 6.9 mph - N/A   Mostly Cloudy
12:51 PM 80.1 °F 81.9 °F 64.9 °F 60% 29.91 in 10.0 mi WSW 6.9 mph - N/A   Mostly Cloudy
1:51 PM 79.0 °F - 62.1 °F 56% 29.90 in 10.0 mi Calm Calm - N/A   Scattered Clouds
2:51 PM 77.0 °F - 64.9 °F 66% 29.90 in 10.0 mi SSW 8.1 mph - 0.01 in   Mostly Cloudy
3:51 PM 80.1 °F 82.1 °F 66.0 °F 62% 29.88 in 10.0 mi Calm Calm - N/A   Mostly Cloudy
4:51 PM 82.0 °F 83.4 °F 64.0 °F 54% 29.87 in 10.0 mi West 10.4 mph - N/A   Partly Cloudy
5:51 PM 77.0 °F - 64.0 °F 64% 29.87 in 10.0 mi WSW 6.9 mph - N/A   Clear
6:51 PM 79.0 °F - 64.0 °F 60% 29.88 in 10.0 mi North 5.8 mph - N/A   Mostly Cloudy
7:51 PM 75.9 °F - 64.9 °F 69% 29.87 in 10.0 mi South 3.5 mph - N/A   Clear
8:51 PM 73.0 °F - 66.0 °F 79% 29.89 in 8.0 mi ENE 3.5 mph - N/A   Mostly Cloudy
9:51 PM 69.1 °F - 64.9 °F 87% 29.90 in 7.0 mi Calm Calm - N/A   Clear
10:51 PM 69.8 °F - 64.4 °F 83% 29.99 in 7.0 mi South 5.8 mph - N/A   Scattered Clouds
11:51 PM 68.0 °F - 64.0 °F 87% 29.88 in 6.0 mi South 4.6 mph - N/A   Clear